Date String (YYYY-MM-DD hh:mm:ss) UTC,Instrument flags,absolute air pressure of the measurement (hPa),sample flow rate (lpm),inlet stack bypass flow (lpm),air temperature of the measurement (°C),ambient temperature measured by the external sensor (°C),aerosol sample conditioner tube jacket temperature (°C),OPC LED temperature (°C),internal box temperature (°C),relative humidity of the measurement (%),span deviation,mass concentration of particles derived from Lorenz-Mie calculation of OPC scattering (μg/m³),mass concentration of particles derived from Lorenz-Mie calculation of OPC scattering (μg/m³),mass concentration of particles derived from Lorenz-Mie calculation of OPC scattering (μg/m³)
DateTimeUTC,F1_M11,P_M11,Q1_M11,Q2_M11,T1_M11,T2_M11,T3_M11,T4_M11,T5_M11,U1_M11,ZSPAN_M11,X0_M11,X2_M11,X1_M11
2024-04-26 03:00:00,SystemResetWarning,0818.0,4.99,000.00,025.6,024.9,000.0,034.1,027.4,019.9,0000.0,0008.56,0002.84,0001.90
2024-04-26 03:01:00,SystemResetWarning,0818.0,4.99,000.00,025.6,024.9,000.0,034.1,027.4,019.8,0000.0,0008.18,0002.79,0001.90
2024-04-26 03:02:00,SystemResetWarning,0818.0,5.00,000.00,025.6,024.8,000.0,034.1,027.4,019.1,0000.0,0007.78,0002.72,0001.86
2024-04-26 03:03:00,SystemResetWarning,0818.0,5.01,000.00,025.6,024.8,000.0,034.1,027.4,018.8,0000.0,0007.62,0002.63,0001.79
2024-04-26 03:04:00,SystemResetWarning,0818.0,5.00,000.00,025.6,024.8,000.0,034.1,027.4,018.4,0000.0,0007.46,0002.45,0001.67
2024-04-26 03:05:00,SystemResetWarning,0818.0,5.00,000.00,025.6,024.8,000.0,034.1,027.4,018.5,0000.0,0007.35,0002.29,0001.53
2024-04-26 03:06:00,SystemResetWarning,0818.0,4.99,000.00,025.6,024.8,000.0,034.1,027.4,018.4,0000.0,0007.09,0002.10,0001.39
2024-04-26 03:07:00,SystemResetWarning,0818.0,4.99,000.00,025.6,024.8,000.0,034.1,027.4,018.3,0000.0,0005.94,0001.84,0001.23
2024-04-26 03:08:00,SystemResetWarning,0818.0,5.00,000.00,025.6,024.8,000.0,034.1,027.4,018.4,0000.0,0005.23,0001.52,0001.07
2024-04-26 03:09:00,SystemResetWarning,0818.0,5.01,000.00,025.6,024.8,000.0,034.1,027.4,018.1,0000.0,0004.76,0001.27,0000.94
2024-04-26 03:10:00,SystemResetWarning,0818.0,4.98,000.00,025.6,024.8,000.0,034.1,027.4,018.0,0000.0,0002.82,0001.10,0000.81
2024-04-26 03:11:00,SystemResetWarning,0818.1,5.00,000.00,025.6,024.8,000.0,034.1,027.4,018.0,0000.0,0001.54,0000.95,0000.68
2024-04-26 03:12:00,SystemResetWarning,0818.1,5.01,000.00,025.6,024.8,000.0,034.1,027.3,018.1,0000.0,0001.24,0000.77,0000.55
2024-04-26 03:13:00,SystemResetWarning,0818.2,5.00,000.00,025.6,024.8,000.0,034.1,027.4,018.1,0000.0,0001.04,0000.65,0000.45
2024-04-26 03:14:00,SystemResetWarning,0818.2,5.00,000.00,025.6,024.8,000.0,034.1,027.4,017.9,0000.0,0000.85,0000.54,0000.39
2024-04-26 03:15:00,SystemResetWarning,0818.3,5.00,000.00,025.6,024.8,000.0,034.1,027.4,018.2,0000.0,0000.68,0000.48,0000.37
2024-04-26 03:16:00,SystemResetWarning,0818.2,5.00,000.00,025.6,024.8,000.0,034.1,027.4,018.3,0000.0,0000.57,0000.45,0000.37
2024-04-26 03:17:00,SystemResetWarning,0818.3,5.00,000.00,025.6,024.8,000.0,034.0,027.4,018.4,0000.0,0000.59,0000.46,0000.37
2024-04-26 03:18:00,SystemResetWarning,0818.2,5.00,000.00,025.6,024.8,000.0,034.0,027.4,018.5,0000.0,0000.82,0000.49,0000.38
2024-04-26 03:19:00,SystemResetWarning,0818.3,5.01,000.00,025.6,024.8,000.0,034.1,027.4,018.4,0000.0,0000.88,0000.52,0000.40
2024-04-26 03:20:00,SystemResetWarning,0818.3,5.01,000.00,025.6,024.8,000.0,034.1,027.4,018.4,0000.0,0000.89,0000.52,0000.39
2024-04-26 03:21:00,SystemResetWarning,0818.3,5.00,000.00,025.6,024.8,000.0,034.1,027.4,018.5,0000.0,0000.86,0000.50,0000.39
2024-04-26 03:22:00,SystemResetWarning,0818.3,4.99,000.00,025.6,024.8,000.0,034.1,027.4,018.4,0000.0,0000.85,0000.49,0000.38
2024-04-26 03:23:00,SystemResetWarning,0818.3,4.99,000.00,025.6,024.8,000.0,034.1,027.4,018.4,0000.0,0000.86,0000.49,0000.37
2024-04-26 03:24:00,SystemResetWarning,0818.3,5.01,000.00,025.6,024.8,000.0,034.0,027.4,018.3,0000.0,0000.85,0000.47,0000.37
2024-04-26 03:25:00,SystemResetWarning,0818.3,5.01,000.00,025.6,024.8,000.0,034.0,027.4,018.3,0000.0,0000.85,0000.47,0000.36
2024-04-26 03:26:00,SystemResetWarning,0818.3,5.00,000.00,025.6,024.8,000.0,034.1,027.4,018.2,0000.0,0000.81,0000.44,0000.34
2024-04-26 03:27:00,SystemResetWarning,0818.3,4.99,000.00,025.6,024.8,000.0,034.1,027.4,018.2,0000.0,0000.97,0000.45,0000.33
2024-04-26 03:28:00,SystemResetWarning,0818.2,4.99,000.00,025.6,024.8,000.0,034.1,027.4,018.1,0000.0,0001.11,0000.44,0000.32
2024-04-26 03:29:00,SystemResetWarning,0818.3,5.01,000.00,025.6,024.8,000.0,034.1,027.3,018.3,0000.0,0000.92,0000.42,0000.30
2024-04-26 03:30:00,SystemResetWarning,0818.3,5.01,000.00,025.6,024.8,000.0,034.1,027.3,018.4,0000.0,0000.94,0000.42,0000.30
2024-04-26 03:31:00,SystemResetWarning,0818.3,4.99,000.00,025.6,024.7,000.0,034.1,027.4,018.4,0000.0,0000.91,0000.41,0000.29
2024-04-26 03:32:00,SystemResetWarning,0818.3,5.00,000.00,025.6,024.7,000.0,034.1,027.4,018.3,0000.0,0000.96,0000.43,0000.29
2024-04-26 03:33:00,SystemResetWarning,0818.3,4.99,000.00,025.6,024.8,000.0,034.0,027.4,018.2,0000.0,0000.95,0000.42,0000.28
2024-04-26 03:34:00,SystemResetWarning,0818.3,5.02,000.00,025.6,024.8,000.0,034.1,027.4,018.3,0000.0,0000.90,0000.40,0000.27
2024-04-26 03:35:00,SystemResetWarning,0818.3,5.01,000.00,025.6,024.8,000.0,034.1,027.4,018.5,0000.0,0000.90,0000.40,0000.27
2024-04-26 03:36:00,SystemResetWarning,0818.3,5.00,000.00,025.6,024.8,000.0,034.1,027.4,018.5,0000.0,0001.03,0000.41,0000.27
2024-04-26 03:37:00,SystemResetWarning,0818.4,5.00,000.00,025.6,024.8,000.0,034.1,027.4,018.4,0000.0,0001.08,0000.43,0000.28
2024-04-26 03:38:00,SystemResetWarning,0818.4,5.00,000.00,025.6,024.8,000.0,034.0,027.4,018.3,0000.0,0000.94,0000.42,0000.28
2024-04-26 03:39:00,SystemResetWarning,0818.4,5.00,000.00,025.6,024.8,000.0,034.1,027.4,017.9,0000.0,0000.81,0000.43,0000.29
2024-04-26 03:40:00,SystemResetWarning,0818.4,4.99,000.00,025.6,024.9,000.0,034.1,027.4,018.3,0000.0,0000.83,0000.44,0000.29
2024-04-26 03:41:00,SystemResetWarning,0818.4,4.99,000.00,025.6,024.9,000.0,034.1,027.4,018.1,0000.0,0000.87,0000.45,0000.29
2024-04-26 03:42:00,SystemResetWarning,0818.4,5.00,000.00,025.6,024.9,000.0,034.1,027.5,018.1,0000.0,0000.91,0000.48,0000.30
2024-04-26 03:43:00,SystemResetWarning,0818.3,5.00,000.00,025.6,024.9,000.0,034.1,027.5,017.8,0000.0,0000.92,0000.48,0000.30
2024-04-26 03:44:00,SystemResetWarning,0818.4,5.00,000.00,025.7,024.9,000.0,034.1,027.5,017.7,0000.0,0000.96,0000.50,0000.32
2024-04-26 03:45:00,SystemResetWarning,0818.4,5.00,000.00,025.7,024.9,000.0,034.1,027.5,017.8,0000.0,0001.01,0000.54,0000.33
2024-04-26 03:46:00,SystemResetWarning,0818.3,5.00,000.00,025.7,024.9,000.0,034.1,027.5,017.4,0000.0,0001.08,0000.57,0000.35
2024-04-26 03:47:00,SystemResetWarning,0818.3,5.00,000.00,025.7,024.9,000.0,034.1,027.5,017.6,0000.0,0000.98,0000.58,0000.36
2024-04-26 03:48:00,SystemResetWarning,0818.3,5.00,000.00,025.7,024.9,000.0,034.1,027.4,017.7,0000.0,0000.99,0000.60,0000.36
2024-04-26 03:49:00,SystemResetWarning,0818.3,5.00,000.00,025.7,024.9,000.0,034.1,027.5,017.4,0000.0,0001.04,0000.61,0000.36
2024-04-26 03:50:00,SystemResetWarning,0818.2,5.00,000.00,025.7,024.9,000.0,034.1,027.4,017.3,0000.0,0001.07,0000.62,0000.36
2024-04-26 03:51:00,SystemResetWarning,0818.1,5.01,000.00,025.7,024.8,000.0,034.1,027.4,017.2,0000.0,0001.03,0000.63,0000.36
2024-04-26 03:52:00,SystemResetWarning,0818.1,5.01,000.00,025.6,024.8,000.0,034.1,027.4,017.4,0000.0,0001.11,0000.64,0000.38
2024-04-26 03:53:00,SystemResetWarning,0818.2,5.01,000.00,025.7,024.8,000.0,034.1,027.4,017.4,0000.0,0001.14,0000.64,0000.38
2024-04-26 03:54:00,SystemResetWarning,0818.2,5.00,000.00,025.6,024.8,000.0,034.1,027.4,017.6,0000.0,0001.10,0000.62,0000.37
2024-04-26 03:55:00,SystemResetWarning,0818.2,4.99,000.00,025.6,024.8,000.0,034.1,027.4,017.7,0000.0,0001.08,0000.62,0000.38
2024-04-26 03:56:00,SystemResetWarning,0818.2,4.99,000.00,025.6,024.8,000.0,034.1,027.4,017.6,0000.0,0001.08,0000.61,0000.38
2024-04-26 03:57:00,SystemResetWarning,0818.2,5.00,000.00,025.6,024.8,000.0,034.1,027.4,017.8,0000.0,0001.21,0000.63,0000.39
2024-04-26 03:58:00,SystemResetWarning,0818.2,4.99,000.00,025.6,024.8,000.0,034.1,027.4,017.8,0000.0,0001.27,0000.66,0000.40
2024-04-26 03:59:00,SystemResetWarning,0818.2,5.01,000.00,025.6,024.8,000.0,034.1,027.4,017.9,0000.0,0001.26,0000.66,0000.42
